Home > Time Zones > World Clock > Weather > Iran > Tabriz > Past weeks

Flag for Iran Weather past 2 weeks in Tabriz, Iran

Now
72 °F

Scattered clouds.


Feels Like: 76 °F
Forecast: 55 / 77 °F
Wind: 5 mph from Northwest

Location: Tabriz Airport


UV Index: 5 (Moderate)

Visibility: N/A


Pressure: 30.09 "Hg

Humidity: 25%

Dew point: 34 °F

Location of TabrizLocation

Historic Weather in Tabriz

°F

Tabriz temperature yesterday

Maximum temperature yesterday: 68 °F (at 5:30 PM)
Minimum temperature yesterday: 43 °F (at 6:30 AM)
Average temperature yesterday: 57 °F

Past Weeks' High & Low Weather Summary

 TemperatureHumidityPressure
High73 °F (Apr 8, 4:30 PM)93% (Apr 14, 2:30 AM)30.30 "Hg (Apr 14, 2:30 AM)
Low32 °F (Apr 3, 6:30 AM)17% (Apr 3, 4:30 PM)29.83 "Hg (Apr 2, 4:30 PM)
Average54 °F48%30.07 "Hg
* Reported Apr 2 4:30 PM — Apr 17 5:00 PM, Tabriz, Weather by CustomWeather, © 2014

Note: Actual official high and low records may vary slightly from our data, if they occured in-between our weather recording intervals... More about our weather records

Advertising

Historic Weather Conditions — Data for Previous 24 hours

 ConditionsComfort  
Time TempWeatherWind HumidityBarometerVisibility
5:00 PM
Apr 17
70 °FPartly sunny.9 mph27%30.09 "HgN/A
4:30 PM70 °FPartly sunny.9 mph27%30.12 "HgN/A
4:00 PM72 °FScattered clouds.12 mph31%30.12 "HgN/A
3:30 PM70 °FScattered clouds.14 mph33%30.12 "HgN/A
3:00 PM70 °FScattered clouds.5 mph31%30.12 "HgN/A
2:30 PM70 °FScattered clouds.9 mph33%30.15 "HgN/A
2:00 PM68 °FScattered clouds.7 mph33%30.15 "HgN/A
1:30 PM68 °FScattered clouds.5 mph33%30.18 "HgN/A
1:00 PM66 °FPassing clouds.7 mph35%30.18 "HgN/A
12:30 PM66 °FPassing clouds.2 mph37%30.18 "HgN/A
12:00 PM64 °FPassing clouds.7 mph40%30.21 "HgN/A
11:30 AM64 °FPassing clouds.7 mph43%30.21 "HgN/A
11:00 AM63 °FPassing clouds.No wind42%30.21 "HgN/A
10:30 AM61 °FPassing clouds.No wind42%30.21 "HgN/A
10:00 AM61 °FSunny.7 mph45%30.21 "Hg10 mi
9:30 AM59 °FSunny.2 mph51%30.21 "Hg10 mi
8:50 AM55 °FSunny.5 mph55%30.21 "Hg10 mi
8:30 AM54 °FSunny.5 mph58%30.21 "Hg10 mi
8:00 AM50 °FClear.7 mph67%30.21 "Hg10 mi
7:30 AM45 °FClear.7 mph76%30.21 "Hg10 mi
6:30 AM45 °FPassing clouds.9 mph71%30.18 "HgN/A
5:30 AM46 °FPassing clouds.5 mph66%30.18 "HgN/A
4:20 AM48 °FPassing clouds.9 mph62%30.18 "HgN/A
3:30 AM48 °FPassing clouds.7 mph62%30.18 "HgN/A
2:30 AM48 °FPassing clouds.7 mph62%30.18 "HgN/A
1:30 AM50 °FPassing clouds.7 mph62%30.18 "Hg5 mi
12:30 AM50 °FPassing clouds.7 mph62%30.18 "Hg5 mi
11:30 PM
Apr 16
52 °FPassing clouds.5 mph62%30.18 "Hg5 mi
10:30 PM55 °FPassing clouds.No wind55%30.18 "Hg5 mi
9:30 PM55 °FPartly sunny.5 mph55%30.18 "Hg5 mi
8:30 PM57 °FBroken clouds.5 mph51%30.15 "Hg5 mi
7:30 PM61 °FPartly sunny.24 mph39%30.12 "HgN/A
7:00 PM61 °FScattered showers. Partly sunny.16 mph42%30.12 "HgN/A
6:30 PM64 °FScattered clouds.14 mph30%30.12 "Hg6 mi
6:00 PM66 °FPartly sunny.14 mph26%30.09 "HgN/A
5:30 PM68 °FScattered showers. Partly sunny.12 mph26%30.09 "HgN/A
5:00 PM66 °FPartly sunny.16 mph28%30.09 "HgN/A
Weather by CustomWeather, © 2014

See weather overview